This demonstration page uses our WeatherBlox Daily Observations layout. Learn more.

Hourly Observations for August 24, 2015

Temp ( °F °C ) Dew Point ( °F °C ) Humidity (%) Winds ( mph kmh ) Pressure ( in mb ) Visibility ( mi km ) Precip ( " mm )
12:15 am 00:15 Clear 54 12.4 45 7.3 71 71 SSW 5 7 30.18 1022 10 16.0934 0 0
12:35 am 00:35 Clear 55 13 45 7.3 69 69 SSW 7 11 30.15 1021 10 16.0934 0 0
12:55 am 00:55 Clear 51 10.4 43 6.2 75 75 Calm 30.18 1022 10 16.0934 0 0
1:15 am 01:15 Clear 53 11.7 45 7 73 73 SSW 3 6 30.15 1021 10 16.0934 0 0
1:35 am 01:35 Clear 55 12.7 44 6.7 67 67 SW 3 6 30.15 1021 10 16.0934 0 0
1:55 am 01:55 Clear 52 11.1 43 6.3 73 73 SSW 5 7 30.15 1021 10 16.0934 0 0
2:15 am 02:15 Clear 54 12.1 44 6.8 70 70 SW 3 6 30.15 1021 10 16.0934 0 0
2:35 am 02:35 Clear 53 11.8 44 6.5 70 70 SW 3 6 30.15 1021 10 16.0934 0 0
2:55 am 02:55 Clear 55 12.6 43 6.3 66 66 SW 6 9 30.15 1021 10 16.0934 0 0
3:15 am 03:15 Clear 55 12.7 43 6 64 64 SW 3 6 30.15 1021 10 16.0934 0 0
3:35 am 03:35 Clear 54 12 43 6.1 67 67 Calm 30.15 1021 10 16.0934 0 0
3:55 am 03:55 Clear 54 12.1 43 6.1 67 67 Calm 30.15 1021 10 16.0934 0 0
4:15 am 04:15 Clear 52 11.3 42 5.7 69 69 Calm 30.15 1021 10 16.0934 0 0
4:35 am 04:35 Clear 52 10.9 42 5.7 71 71 W 3 6 30.15 1021 10 16.0934 0 0
4:55 am 04:55 Clear 50 10.2 42 5.7 74 74 W 3 6 30.18 1022 10 16.0934 0 0
5:15 am 05:15 Clear 53 11.7 42 5.5 66 66 Calm 30.15 1021 10 16.0934 0 0
5:35 am 05:35 Clear 53 11.5 42 5.6 67 67 Calm 30.15 1021 10 16.0934 0 0
5:55 am 05:55 Clear 53 11.4 42 5.5 67 67 Calm 30.15 1021 10 16.0934 0 0
6:15 am 06:15 Clear 53 11.5 42 5.6 67 67 Calm 30.15 1021 10 16.0934 0 0
6:35 am 06:35 Clear 51 10.8 42 5.5 70 70 SW 5 7 30.15 1021 10 16.0934 0 0
6:55 am 06:55 Clear 52 11.3 42 5.5 68 68 Calm 30.15 1021 10 16.0934 0 0
7:15 am 07:15 Sunny 50 10.2 42 5.4 72 72 WSW 3 6 30.18 1022 10 16.0934 0 0
7:35 am 07:35 Sunny 53 11.5 42 5.6 67 67 W 3 6 30.18 1022 10 16.0934 0 0
7:55 am 07:55 Sunny 53 11.5 44 6.5 72 72 WSW 5 7 30.18 1022 10 16.0934 0 0
8:15 am 08:15 Sunny 56 13.4 46 7.9 70 70 WSW 6 9 30.18 1022 10 16.0934 0 0
8:35 am 08:35 Sunny 58 14.6 47 8.3 66 66 WSW 3 6 30.15 1021 10 16.0934 0 0
8:55 am 08:55 Sunny 61 15.9 46 7.7 58 58 WSW 5 7 30.15 1021 10 16.0934 0 0
9:15 am 09:15 Sunny 62 16.6 46 7.8 56 56 WSW 5 7 30.15 1021 10 16.0934 0 0
9:35 am 09:35 Sunny 64 17.8 45 7.1 50 50 W 7 11 30.12 1020 10 16.0934 0 0
9:55 am 09:55 Sunny 66 18.7 45 7 47 47 W 5 7 30.12 1020 10 16.0934 0 0
10:15 am 10:15 Sunny 67 19.7 44 6.8 43 43 WSW 5 7 30.12 1020 10 16.0934 0 0
10:35 am 10:35 Sunny 69 20.8 44 6.9 41 41 SW 5 7 30.12 1020 10 16.0934 0 0
10:55 am 10:55 Sunny 71 21.9 44 6.7 37 37 SSW 5 7 30.09 1019 10 16.0934 0 0
11:15 am 11:15 Sunny 72 22.4 43 6 35 35 S 6 9 30.09 1019 10 16.0934 0 0
11:35 am 11:35 Sunny 73 23 42 5.7 33 33 SSW 7 11 30.09 1019 10 16.0934 0 0
11:55 am 11:55 Sunny 74 23.6 41 5 30 30 S 7 11 30.09 1019 10 16.0934 0 0
12:15 pm 12:15 Sunny 75 23.8 41 5.2 30 30 SW 6 9 30.09 1019 10 16.0934 0 0
12:35 pm 12:35 Sunny 75 24.1 40 4.6 28 28 SSW 8 13 30.09 1019 10 16.0934 0 0
12:55 pm 12:55 Sunny 76 24.5 41 5.1 29 29 SW 6 9 30.06 1018 10 16.0934 0 0
1:15 pm 13:15 Sunny 76 24.5 41 4.9 28 28 S 6 9 30.03 1017 10 16.0934 0 0
1:35 pm 13:35 Sunny 76 24.7 40 4.7 28 28 SSE 10 17 30.03 1017 10 16.0934 0 0
1:55 pm 13:55 Sunny 77 25 41 5.1 28 28 SSE 8 13 30.03 1017 10 16.0934 0 0
2:15 pm 14:15 Sunny 78 25.5 42 5.8 28 28 SE 8 13 30.03 1017 10 16.0934 0 0
2:35 pm 14:35 Sunny 77 25.2 43 6.2 30 30 Calm 30.03 1017 10 16.0934 0 0
2:55 pm 14:55 Sunny 79 25.9 42 5.4 27 27 SSE 8 13 30.03 1017 10 16.0934 0 0
3:15 pm 15:15 Sunny 79 26.1 42 5.8 27 27 SSE 9 15 30 1016 10 16.0934 0 0
3:35 pm 15:35 Sunny 79 26.2 42 5.7 27 27 S 5 7 30 1016 10 16.0934 0 0
3:55 pm 15:55 Sunny 80 26.5 42 5.5 26 26 SSE 7 11 30 1016 10 16.0934 0 0
4:15 pm 16:15 Sunny 80 26.6 42 5.8 26 26 SE 6 9 30 1016 10 16.0934 0 0
4:35 pm 16:35 Sunny 80 26.7 41 5.1 25 25 SSE 7 11 30 1016 10 16.0934 0 0
4:55 pm 16:55 Sunny 81 27 41 5 24 24 SSE 7 11 30 1016 10 16.0934 0 0
5:15 pm 17:15 Sunny 80 26.8 41 5.2 25 25 SSE 7 11 30 1016 10 16.0934 0 0
5:35 pm 17:35 Sunny 81 27.1 42 5.4 25 25 SE 7 11 30 1016 10 16.0934 0 0
5:55 pm 17:55 Sunny 81 27 42 5.4 25 25 SSE 6 9 30 1016 10 16.0934 0 0
6:15 pm 18:15 Sunny 80 26.8 44 6.7 28 28 SSE 6 9 30 1016 10 16.0934 0 0
6:35 pm 18:35 Sunny 80 26.6 46 7.5 30 30 SE 5 7 30 1016 10 16.0934 0 0
6:55 pm 18:55 Sunny 79 26 47 8.5 33 33 SE 5 7 30 1016 10 16.0934 0 0
7:15 pm 19:15 Sunny 77 25.1 51 10.7 40 40 SE 5 7 30 1016 10 16.0934 0 0
7:35 pm 19:35 Sunny 74 23.1 56 13.3 54 54 E 3 6 30.03 1017 10 16.0934 0 0
7:55 pm 19:55 Sunny 71 21.5 57 14.1 63 63 E 5 7 30.03 1017 10 16.0934 0 0
8:15 pm 20:15 Sunny 67 19.5 56 13.6 69 69 E 6 9 30.06 1018 10 16.0934 0 0
8:35 pm 20:35 Clear 64 18 55 12.5 70 70 ESE 7 11 30.06 1018 10 16.0934 0 0
8:55 pm 20:55 Clear 62 16.5 55 13 80 80 ESE 6 9 30.09 1019 10 16.0934 0 0
9:15 pm 21:15 Clear 60 15.8 55 12.9 83 83 ESE 5 7 30.09 1019 10 16.0934 0 0
9:35 pm 21:35 Clear 60 15.3 54 12.3 82 82 SE 5 7 30.09 1019 7 11.26538 0 0
9:55 pm 21:55 Clear 60 15.3 53 11.4 78 78 SE 7 11 30.09 1019 10 16.0934 0 0
10:15 pm 22:15 Clear 57 14 51 10.5 80 80 SE 6 9 30.09 1019 10 16.0934 0 0
10:35 pm 22:35 Clear 58 14.4 50 10 75 75 SE 6 9 30.09 1019 10 16.0934 0 0
10:55 pm 22:55 Clear 58 14.4 49 9.7 74 74 SSE 5 7 30.09 1019 10 16.0934 0 0
11:15 pm 23:15 Clear 57 13.7 49 9.7 77 77 SSE 5 7 30.09 1019 10 16.0934 0 0
11:35 pm 23:35 Clear 58 14.6 48 9 69 69 SSE 7 11 30.09 1019 10 16.0934 0 0
11:55 pm 23:55 Clear 59 14.9 48 8.7 67 67 SSE 7 11 30.09 1019 10 16.0934 0 0

Powered by AerisWeather